Location: Amherst
(42.5000°N, 72.5000°W)
Time: 10:43:35
(UTC-04:00)

ISS - Pass Details

Date: 14 July 2018
Orbit: 402 x 408 km, 51.6° (Epoch: 20 July)

Event Time Altitude Azimuth Distance (km) Brightness Sun altitude
Rises 04:26:00 0° 304° (NW) 2,333 -0.1 -9.6°
Reaches altitude 10° 04:28:29 10° 323° (NW) 1,472 -0.9 -9.3°
Maximum altitude 04:30:58 19° 12° (NNE) 1,036 -1.0 -9.0°
Drops below altitude 10° 04:33:26 10° 60° (ENE) 1,472 0.6 -8.6°
Sets 04:35:56 0° 79° (E) 2,332 1.2 -8.3°
